Погода Аскино

Погода Аскино : погода сейчас, прогноз погоды и архив. Всё, что Вы хотите узнать о погоде Аскино!

Поиск расширенной информации на нашем сайте:

Другие новости

Новости СМИ2

Главная страница сайта

Новости сайта

03.07.2017

Напоминаем, что на нашем специализированном сайте Метеоцентр.Азия вы можете получить высокодетализированные автоматические прогнозы погоды по пунктам России, СНГ и мира в авиационном формате (включающие направление и скорость ветра, видимость, явления погоды, количество и форму облачности, нижнюю и верхнюю границу облачности).


Погода Аскино - сегодня

Время (UTC), дата Ветер
(°,м/с) 
Видим.   Явления Облачность Т
(°С)
Тd
(°С)
f(%) Тe
(°С)
Pmin
(гПа)
dP
(гПа)
Po
(мм)
O2
(г/м3)
Тmin Tmax R s Состояние
почвы
03 18.11.17 240 (ЮЗ) н/о  {снег}  10/0 средняя 
[Ac und]
-2.5 -4.5 86 -5  1020.4  746  304  -2.5    0.2  равномерный
сухой снег
100% 
06 18.11.17 210 (ЮЗ) 4000 м  слаб. снег  10/10 300 м 
[Ns]
-2.1 -4.6 83 -4  1020.5  0.1  746  303           
09 18.11.17 220 (ЮЗ) 4000 м  слаб. снег  10/10 300 м 
[Ns]
-1.2 -3 88 -4  1020.2  -0.2  746  302           
12 18.11.17 200 (Ю) 4000 м  слаб. снег  10/10 300 м 
[Ns]
-0.7 -2.9 85 -4  1019.4  -0.7  745  301           
15 18.11.17 230 (ЮЗ) 6{11}  4000 м  слаб. снег  10/10 300 м 
[Ns]
-0.7 -2.5 88 -4  1019.8  0.4  745  301    -0.5  0.5     
18 18.11.17 240 (ЮЗ) 4000 м  слаб. снег  10/10 300 м 
[Ns]
-0.7 -2.4 88 -4  1020.6  0.8  746  302           
21 18.11.17 240 (ЮЗ) 4000 м  слаб. снег  10/10 300 м 
[Ns]
-0.5 -2 90 -4  1022.3  1.6  747  302           
00 19.11.17 230 (ЮЗ) н/о  {снег}  10/10 600 м 
[Sc]
-0.2 -2 88 -3  1024  1.7  748  302           
03 19.11.17 220 (ЮЗ) н/о    10/10 600 м 
[Sc]
-0.2 -1.5 91 -3  1025.1  1.1  749  302  -0.8    0.2  равномерный
мокрый или
старый снег
100% 
06 19.11.17 200 (Ю) 10 км    10/10 600 м 
[Sc]
-0.1 -1.9 88 -3  1025.9  0.8  750  302           
09 19.11.17 210 (ЮЗ) 10 км    10/10 600 м 
[Sc]
+0.2 -2 85 -3  1026.2  0.3  750  302           
12 19.11.17 210 (ЮЗ) 4000 м  слаб. снег  10/10 300 м 
[Ns]
+0.1 -1.5 89 -2  1026.7  0.5  750  302           
15 19.11.17 200 (Ю) н/о  {снег}  9/9 600 м 
[Sc]
+0 -2.6 83 -2  1026.8  0.1  751  303    +0.2  0.4     
18 19.11.17 200 (Ю) н/о  {снег}  10/10 600 м 
[Sc]
-0.3 -3.3 80 -3  1026.6  -0.3  750  303           
21 19.11.17 180 (Ю) н/о    10/10 600 м 
[Sc]
-0.8 -3.1 84 -3  1026.3  -0.3  750  303           
00 20.11.17 160 (Ю) н/о    10/10 600 м 
[Sc]
-1.4 -3.7 84 -4  1024.9  -1.4  749  304           
03 20.11.17 180 (Ю) н/о    10/8 1000 м средняя 
[Cu med, cong|Ac und]
-0.9 -3 86 -4  1024.4  -0.5  749  303  -1.5      равномерный
сухой снег
100% 
06 20.11.17 170 (Ю) 10 км    10/0 средняя 
[As op]
-0.4 -2.3 87 -3  1024.2  0.1  749  302           
09 20.11.17 190 (Ю) 10 км    10/0 средняя 
[As op]
+0.7 -1.8 83 -2  1024  -0.2  749  301           
12 20.11.17 180 (Ю) 10 км    10/0 средняя 
[Ac und]
+1.1 -1.9 80 -1  1023.7  -0.2  748  301           
15 20.11.17 180 (Ю) н/о    10/6 600 м средняя 
[Cu hum|Ac und]
+0.7 -1.3 86 -2  1023.5  -0.2  748  301    +1.1       
18 20.11.17 170 (Ю) н/о    10/0 средняя 
[Ac und]
+1.1 -1.4 83 1023.2  -0.3  748  300           
21 20.11.17 170 (Ю) н/о    10/0 средняя 
[Ac und]
+1.4 -1.5 81 1023.2  748  300           
00 21.11.17 170 (Ю) н/о    9/0 средняя 
[Ac trans]
+0.7 -3.1 76 1023  -0.3  748  301           
03 21.11.17 160 (Ю) н/о    9/0 средняя 
[Ac lent]
-0.2 -5.1 69 -2  1022.2  -0.8  747  302  -0.2      равномерный
сухой снег
100% 
Время (UTC), дата Ветер
(°,м/с) 
Видим.   Явления Облачность Т
(°С)
Тd
(°С)
f(%) Тe
(°С)
Pmin
(гПа)
dP
(гПа)
Po
(мм)
O2
(г/м3)
Тmin Tmax R s Состояние
почвы

Для получения пояснительной информации подведите курсор к названию столбца.

ПОГОДА Аскино - архив

Всё, что Вы хотите узнать о погоде Аскино - удобно и подробно!

Выберите нужную дату (начиная с 1 января 2015* года) и нажмите кнопку "Найти".
Будут отображены архивные сводки погоды по пункту Аскино, начиная с указанной даты.


Отображать данные в формате CSV (для использования в таблицах Excel)


Внимание! Наш архив погоды предназначен исключительно для личного некоммерческого использования в познавательных целях. Если Вам необходимы официальные справки о состоянии погоды (для производственных, юридических, коммерческих и т.п. целей), обращайтесь в органы Росгидромета.

*Примечание: данная дата относится к архиву по метеостанциям СССР (Россия, СНГ, Балтия).
Архив по метеостанциям Зарубежной Европы и Азии (кроме Китая) хранится 10 дней, по другим регионам земного шара (Китай, Африка, Америка, Австралия, Океания) - 1 день.

Аскино - район местоположения метеостанции


Название, широта, долгота, высота метеостанции:
Аскино 56.1°ш. 56.6°д. 207 м над ур. моря [Российская Федерация]

Дополнительная информация

В oтличие oт бoльшинства пoгoдных сайтoв мы публикуем пoдрoбную метеoинфoрмацию в детальнoм прoфессиoнальнoм фoрмате.

Характеристики температуры и влажнoсти вoздуха измеряются на высoте 2 м в тени вдали oт зданий и деревьев.
Скoрoсть ветра измеряется на высoте 10 м (на урoвне рoста челoвека скoрoсть ветра ниже в 1.5-2 раза). Если метеoстанция нахoдится в гoрoде или в лесу, тo скoрoсть ветра занижена на 2-4 м/с пo сравнению с oткрытым местoм. Скoрoсть ветра над акватoриями крупных рек и oзёр, а также на вершинах хoлмoв на 2-5 м/с выше, чем в oбычных услoвиях.
Атмoсфернoе давление в разных тoчках местнoсти мoжет значительнo oтличаться oт давления на метеoстанции, в зависимoсти oт услoвий рельефа (при пoдъёме на 10 м давление пoнижается примернo на 1 мм рт.ст.).